EN

Hourly Weather Luh

Today, 29 November, Sunday

Time Temperature Precipitation Wind Pressure Humidity
00:00 -1°C° 0 mm 2 mps 736 mmHg 99%
01:00 -2°C° 0 mm 2 mps 736 mmHg 100%
02:00 -2°C° 0 mm 2 mps 736 mmHg 94%
03:00 0°C° 0 mm 1 mps 736 mmHg 99%
04:00 0°C° 0 mm 1 mps 736 mmHg 100%
05:00 0°C° 0 mm 1 mps 736 mmHg 100%
06:00 -1°C° 0.1 mm 0 mps 736 mmHg 100%
07:00 -1°C° 0.1 mm 0 mps 736 mmHg 100%
08:00 0°C° 0.1 mm 1 mps 736 mmHg 100%
09:00 0°C° 0.1 mm 1 mps 736 mmHg 100%
10:00 -1°C° 0 mm 2 mps 736 mmHg 97%
11:00 +1°C° 0 mm 2 mps 736 mmHg 92%
12:00 +1°C° 0 mm 2 mps 736 mmHg 92%
13:00 +2°C° 0.3 mm 1 mps 736 mmHg 90%
14:00 +2°C° 0.4 mm 1 mps 736 mmHg 94%
15:00 +1°C° 0 mm 0 mps 736 mmHg 85%
16:00 +1°C° 0 mm 0 mps 736 mmHg 90%
17:00 +2°C° 0.1 mm 1 mps 736 mmHg 90%
18:00 0°C° 0.4 mm 0 mps 737 mmHg 99%
19:00 0°C° 0 mm 0 mps 737 mmHg 98%
20:00 +1°C° 0 mm 1 mps 737 mmHg 97%
21:00 0°C° 0 mm 1 mps 737 mmHg 96%
22:00 0°C° 0 mm 1 mps 737 mmHg 97%
23:00 -1°C° 0 mm 0 mps 738 mmHg 99%

Tomorrow, 30 November, Monday

Time Temperature Precipitation Wind Pressure Humidity
00:00 0°C° 0 mm 1 mps 738 mmHg 100%
01:00 0°C° 0 mm 1 mps 738 mmHg 99%
02:00 -3°C° 0 mm 2 mps 738 mmHg 100%
03:00 -3°C° 0 mm 2 mps 738 mmHg 100%
04:00 -4°C° 0 mm 2 mps 738 mmHg 100%
05:00 -4°C° 0 mm 2 mps 738 mmHg 100%
06:00 -4°C° 0 mm 2 mps 738 mmHg 100%
07:00 -5°C° 0 mm 2 mps 739 mmHg 100%
08:00 -5°C° 0 mm 2 mps 740 mmHg 100%
09:00 -5°C° 0 mm 2 mps 740 mmHg 99%
10:00 -4°C° 0 mm 2 mps 740 mmHg 98%
11:00 -4°C° 0 mm 2 mps 740 mmHg 97%
12:00 -3°C° 0 mm 2 mps 740 mmHg 96%
13:00 -3°C° 0 mm 2 mps 740 mmHg 95%
14:00 -4°C° 0 mm 3 mps 741 mmHg 95%
15:00 -3°C° 0 mm 2 mps 741 mmHg 95%
16:00 -4°C° 0 mm 3 mps 741 mmHg 97%
17:00 -3°C° 0 mm 2 mps 741 mmHg 98%
18:00 -4°C° 0 mm 2 mps 741 mmHg 97%
19:00 -1°C° 0 mm 1 mps 741 mmHg 96%
20:00 -4°C° 0 mm 2 mps 741 mmHg 96%
21:00 -2°C° 0 mm 1 mps 741 mmHg 97%
22:00 -2°C° 0 mm 1 mps 741 mmHg 98%
23:00 -2°C° 0 mm 1 mps 741 mmHg 99%

Day after tomorrow, 1 December, Tuesday

Time Temperature Precipitation Wind Pressure Humidity
00:00 -2°C° 0 mm 1 mps 741 mmHg 99%
01:00 -3°C° 0 mm 1 mps 741 mmHg 98%
02:00 -2°C° 0 mm 1 mps 741 mmHg 98%
03:00 -2°C° 0 mm 1 mps 741 mmHg 97%
04:00 -2°C° 0 mm 1 mps 741 mmHg 97%
05:00 -3°C° 0 mm 0 mps 741 mmHg 97%
06:00 -3°C° 0 mm 0 mps 741 mmHg 97%
07:00 -3°C° 0 mm 0 mps 741 mmHg 98%
08:00 -3°C° 0 mm 0 mps 741 mmHg 98%
09:00 -3°C° 0 mm 0 mps 741 mmHg 98%
10:00 -3°C° 0 mm 0 mps 741 mmHg 97%
11:00 -2°C° 0 mm 0 mps 741 mmHg 97%
12:00 -2°C° 0 mm 0 mps 741 mmHg 97%
13:00 -1°C° 0 mm 0 mps 741 mmHg 96%
14:00 -1°C° 0 mm 0 mps 741 mmHg 95%
15:00 0°C° 0 mm 0 mps 741 mmHg 94%
16:00 -1°C° 0 mm 0 mps 741 mmHg 96%
17:00 0°C° 0 mm 1 mps 741 mmHg 96%
18:00 0°C° 0 mm 1 mps 740 mmHg 96%
19:00 -1°C° 0 mm 1 mps 741 mmHg 97%
20:00 -1°C° 0 mm 1 mps 741 mmHg 98%
21:00 -1°C° 0 mm 1 mps 741 mmHg 98%
22:00 -1°C° 0 mm 1 mps 741 mmHg 98%
23:00 -1°C° 0 mm 1 mps 741 mmHg 98%

2 December, Wednesday

Time Temperature Precipitation Wind Pressure Humidity
00:00 -1°C° 0 mm 1 mps 741 mmHg 99%
01:00 -1°C° 0 mm 1 mps 740 mmHg 98%
02:00 -1°C° 0 mm 1 mps 740 mmHg 97%
03:00 -1°C° 0 mm 1 mps 740 mmHg 97%
04:00 -1°C° 0 mm 1 mps 740 mmHg 99%
05:00 -1°C° 0 mm 1 mps 740 mmHg 98%
06:00 -1°C° 0 mm 1 mps 740 mmHg 99%
07:00 -1°C° 0.1 mm 1 mps 740 mmHg 100%
08:00 -1°C° 0 mm 1 mps 740 mmHg 99%
09:00 -1°C° 0 mm 1 mps 740 mmHg 98%
10:00 0°C° 0 mm 1 mps 740 mmHg 97%
11:00 +1°C° 0 mm 1 mps 740 mmHg 96%
12:00 +1°C° 0.1 mm 1 mps 740 mmHg 96%
13:00 +1°C° 0.1 mm 1 mps 739 mmHg 95%
14:00 0°C° 0.2 mm 0 mps 739 mmHg 96%
15:00 0°C° 0.1 mm 0 mps 739 mmHg 96%
16:00 0°C° 0.1 mm 0 mps 739 mmHg 98%
17:00 0°C° 0 mm 0 mps 739 mmHg 98%
18:00 +1°C° 0 mm 1 mps 738 mmHg 98%
19:00 0°C° 0 mm 1 mps 739 mmHg 98%
20:00 0°C° 0 mm 1 mps 739 mmHg 98%
21:00 0°C° 0 mm 1 mps 739 mmHg 99%
22:00 0°C° 0 mm 1 mps 738 mmHg 100%
23:00 0°C° 0 mm 1 mps 738 mmHg 100%

3 December, Thursday

Time Temperature Precipitation Wind Pressure Humidity
00:00 0°C° 0 mm 1 mps 738 mmHg 100%
01:00 0°C° 0 mm 1 mps 738 mmHg 100%
02:00 -2°C° 0 mm 2 mps 738 mmHg 100%
03:00 -2°C° 0 mm 3 mps 738 mmHg 100%
04:00 -2°C° 0 mm 3 mps 738 mmHg 99%
05:00 -2°C° 0 mm 3 mps 738 mmHg 99%
06:00 -2°C° 0 mm 3 mps 737 mmHg 100%
07:00 -4°C° 0 mm 3 mps 738 mmHg 100%
08:00 -4°C° 0 mm 4 mps 738 mmHg 99%
09:00 -3°C° 0 mm 4 mps 738 mmHg 98%
10:00 -3°C° 0 mm 4 mps 738 mmHg 97%
11:00 -2°C° 0 mm 4 mps 738 mmHg 96%
12:00 -2°C° 0 mm 4 mps 738 mmHg 95%
13:00 -2°C° 0 mm 4 mps 737 mmHg 95%
14:00 -1°C° 0 mm 4 mps 737 mmHg 96%
15:00 -1°C° 0 mm 5 mps 736 mmHg 97%
16:00 -2°C° 0 mm 4 mps 736 mmHg 98%
17:00 -2°C° 0 mm 5 mps 736 mmHg 98%
18:00 -2°C° 0 mm 5 mps 736 mmHg 100%
19:00 -4°C° 0 mm 5 mps 736 mmHg 100%
20:00 -4°C° 0 mm 5 mps 736 mmHg 100%
21:00 -4°C° 0 mm 5 mps 736 mmHg 100%
22:00 -4°C° 0 mm 5 mps 736 mmHg 100%
23:00 -4°C° 0 mm 5 mps 736 mmHg 100%

4 December, Friday

Time Temperature Precipitation Wind Pressure Humidity
00:00 -4°C° 0 mm 5 mps 735 mmHg 100%
01:00 -5°C° 0 mm 5 mps 735 mmHg 100%
02:00 -5°C° 0 mm 5 mps 735 mmHg 100%
03:00 -5°C° 0 mm 5 mps 734 mmHg 100%
04:00 -5°C° 0 mm 5 mps 734 mmHg 100%
05:00 -4°C° 0 mm 6 mps 734 mmHg 100%
06:00 -4°C° 0 mm 6 mps 734 mmHg 100%
07:00 -4°C° 0 mm 6 mps 734 mmHg 100%
08:00 -4°C° 0 mm 6 mps 734 mmHg 100%
09:00 -6°C° 0 mm 7 mps 734 mmHg 100%
10:00 -4°C° 0 mm 7 mps 734 mmHg 98%
11:00 -4°C° 0 mm 7 mps 733 mmHg 97%
12:00 -4°C° 0 mm 8 mps 733 mmHg 95%
13:00 -2°C° 0 mm 8 mps 733 mmHg 95%
14:00 -2°C° 0 mm 7 mps 733 mmHg 95%
15:00 -3°C° 0 mm 7 mps 733 mmHg 96%
16:00 -3°C° 0 mm 7 mps 733 mmHg 99%
17:00 -3°C° 0 mm 7 mps 733 mmHg 100%
18:00 -2°C° 0 mm 8 mps 733 mmHg 100%
19:00 -1°C° 0 mm 9 mps 733 mmHg 100%
20:00 -1°C° 0 mm 9 mps 733 mmHg 100%
21:00 -1°C° 0 mm 8 mps 734 mmHg 100%
22:00 -1°C° 1.3 mm 7 mps 733 mmHg 100%
23:00 -2°C° 1.1 mm 7 mps 734 mmHg 100%
Show more